When you browse on this site, cookies collect data to enhance your experience and personalize the content and advertising you see.
Visit our Privacy Policy to learn more. By continuing to use the site, you agree to this use of cookies and data.
  • In Deutschland
  • Länderverzeichnis
  • Für 7 Tage
  • Wassertemperatur
  • Wetterkarte
  • Widgets
  • user-avatar
    Anmelden

    Stündliche Wetter Kaprun

    Heute, 4 Juni, Donnerstag

    Zeit Temperatur Niederschläge Wind Luftdruck Luftfeuchtigkeit
    00:00 +3°C° 0 mm 2 m/S 589 mmHg 84%
    01:00 +3°C° 0 mm 2 m/S 588 mmHg 85%
    02:00 +3°C° 0 mm 2 m/S 588 mmHg 86%
    03:00 +3°C° 0 mm 2 m/S 588 mmHg 87%
    04:00 +3°C° 0 mm 2 m/S 587 mmHg 87%
    05:00 +4°C° 0 mm 2 m/S 588 mmHg 85%
    06:00 +5°C° 0 mm 2 m/S 588 mmHg 83%
    07:00 +7°C° 0 mm 2 m/S 589 mmHg 80%
    08:00 +8°C° 0 mm 2 m/S 589 mmHg 74%
    09:00 +10°C° 0 mm 2 m/S 590 mmHg 68%
    10:00 +12°C° 0 mm 2 m/S 590 mmHg 61%
    11:00 +12°C° 0.2 mm 2 m/S 590 mmHg 64%
    12:00 +12°C° 0.2 mm 2 m/S 589 mmHg 68%
    13:00 +10°C° 0.2 mm 3 m/S 589 mmHg 71%
    14:00 +9°C° 0.6 mm 3 m/S 588 mmHg 76%
    15:00 +8°C° 0.6 mm 3 m/S 588 mmHg 81%
    16:00 +7°C° 0.6 mm 3 m/S 587 mmHg 87%
    17:00 +7°C° 0.4 mm 3 m/S 587 mmHg 88%
    18:00 +5°C° 0.4 mm 3 m/S 586 mmHg 90%
    19:00 +6°C° 0.4 mm 2 m/S 586 mmHg 91%
    20:00 +5°C° 1 mm 2 m/S 586 mmHg 93%
    21:00 +5°C° 1 mm 1 m/S 585 mmHg 95%
    22:00 +4°C° 1 mm 0 m/S 585 mmHg 97%
    23:00 +4°C° 2.1 mm 1 m/S 585 mmHg 97%

    Morgen, 5 Juni, Freitag

    Zeit Temperatur Niederschläge Wind Luftdruck Luftfeuchtigkeit
    00:00 +4°C° 2.1 mm 1 m/S 585 mmHg 98%
    01:00 +4°C° 2.1 mm 1 m/S 584 mmHg 98%
    02:00 +3°C° 2.4 mm 1 m/S 584 mmHg 98%
    03:00 +3°C° 2.4 mm 1 m/S 584 mmHg 98%
    04:00 +1°C° 2.4 mm 2 m/S 583 mmHg 98%
    05:00 +2°C° 1.6 mm 1 m/S 584 mmHg 98%
    06:00 +3°C° 1.6 mm 1 m/S 584 mmHg 98%
    07:00 +3°C° 1.6 mm 1 m/S 584 mmHg 98%
    08:00 +3°C° 1.6 mm 1 m/S 585 mmHg 98%
    09:00 +3°C° 1.6 mm 1 m/S 585 mmHg 98%
    10:00 +3°C° 1.6 mm 1 m/S 586 mmHg 98%
    11:00 +3°C° 0.6 mm 1 m/S 586 mmHg 96%
    12:00 +4°C° 0.6 mm 1 m/S 586 mmHg 95%
    13:00 +4°C° 0.6 mm 1 m/S 587 mmHg 93%
    14:00 +5°C° 0.2 mm 1 m/S 587 mmHg 89%
    15:00 +6°C° 0.2 mm 1 m/S 587 mmHg 85%
    16:00 +7°C° 0.2 mm 1 m/S 588 mmHg 81%
    17:00 +5°C° 0 mm 0 m/S 588 mmHg 83%
    18:00 +5°C° 0 mm 0 m/S 588 mmHg 85%
    19:00 +4°C° 0 mm 0 m/S 588 mmHg 87%
    20:00 +4°C° 0 mm 1 m/S 588 mmHg 88%
    21:00 +3°C° 0 mm 1 m/S 588 mmHg 89%
    22:00 +1°C° 0 mm 1 m/S 588 mmHg 90%
    23:00 -1°C° 0 mm 2 m/S 588 mmHg 89%

    übermorgen, 6 Juni, Samstag

    Zeit Temperatur Niederschläge Wind Luftdruck Luftfeuchtigkeit
    00:00 -1°C° 0 mm 2 m/S 588 mmHg 89%
    01:00 -1°C° 0 mm 2 m/S 588 mmHg 89%
    02:00 -1°C° 0 mm 2 m/S 588 mmHg 89%
    03:00 -1°C° 0 mm 2 m/S 588 mmHg 89%
    04:00 -1°C° 0 mm 2 m/S 588 mmHg 89%
    05:00 +2°C° 0 mm 2 m/S 589 mmHg 86%
    06:00 +4°C° 0 mm 2 m/S 590 mmHg 83%
    07:00 +5°C° 0 mm 2 m/S 591 mmHg 80%
    08:00 +7°C° 0 mm 2 m/S 592 mmHg 77%
    09:00 +8°C° 0 mm 2 m/S 593 mmHg 73%
    10:00 +9°C° 0 mm 2 m/S 593 mmHg 70%
    11:00 +10°C° 0.1 mm 2 m/S 594 mmHg 69%
    12:00 +10°C° 0.1 mm 2 m/S 594 mmHg 69%
    13:00 +12°C° 0.1 mm 2 m/S 594 mmHg 69%
    14:00 +10°C° 0.5 mm 2 m/S 594 mmHg 74%
    15:00 +10°C° 0.5 mm 2 m/S 593 mmHg 80%
    16:00 +9°C° 0.5 mm 2 m/S 593 mmHg 86%
    17:00 +8°C° 0.8 mm 2 m/S 593 mmHg 90%
    18:00 +8°C° 0.8 mm 1 m/S 592 mmHg 94%
    19:00 +7°C° 0.8 mm 1 m/S 592 mmHg 98%
    20:00 +7°C° 0.8 mm 1 m/S 592 mmHg 98%
    21:00 +6°C° 0.8 mm 1 m/S 592 mmHg 99%
    22:00 +6°C° 0.8 mm 1 m/S 592 mmHg 99%
    23:00 +6°C° 0.5 mm 1 m/S 592 mmHg 99%

    7 Juni, Sonntag

    Zeit Temperatur Niederschläge Wind Luftdruck Luftfeuchtigkeit
    00:00 +5°C° 0.5 mm 1 m/S 592 mmHg 99%
    01:00 +5°C° 0.5 mm 1 m/S 592 mmHg 99%
    02:00 +5°C° 0 mm 1 m/S 592 mmHg 98%
    03:00 +5°C° 0 mm 1 m/S 592 mmHg 98%
    04:00 +5°C° 0 mm 1 m/S 592 mmHg 98%
    05:00 +5°C° 0.1 mm 1 m/S 592 mmHg 97%
    06:00 +6°C° 0.1 mm 1 m/S 592 mmHg 96%
    07:00 +7°C° 0.1 mm 1 m/S 593 mmHg 95%
    08:00 +7°C° 0.2 mm 1 m/S 593 mmHg 94%
    09:00 +7°C° 0.2 mm 1 m/S 593 mmHg 94%
    10:00 +7°C° 0.2 mm 2 m/S 594 mmHg 93%
    11:00 +7°C° 0.5 mm 2 m/S 594 mmHg 92%
    12:00 +7°C° 0.5 mm 2 m/S 594 mmHg 90%
    13:00 +8°C° 0.5 mm 2 m/S 594 mmHg 89%
    14:00 +7°C° 0.8 mm 2 m/S 594 mmHg 91%
    15:00 +7°C° 0.8 mm 2 m/S 594 mmHg 93%
    16:00 +6°C° 0.8 mm 2 m/S 594 mmHg 95%
    17:00 +5°C° 1 mm 2 m/S 593 mmHg 96%
    18:00 +5°C° 1 mm 2 m/S 593 mmHg 97%
    19:00 +5°C° 1 mm 1 m/S 593 mmHg 99%
    20:00 +4°C° 1.7 mm 1 m/S 593 mmHg 99%
    21:00 +4°C° 1.7 mm 1 m/S 593 mmHg 99%
    22:00 +4°C° 1.7 mm 1 m/S 593 mmHg 98%
    23:00 +4°C° 1.8 mm 1 m/S 593 mmHg 98%

    8 Juni, Montag

    Zeit Temperatur Niederschläge Wind Luftdruck Luftfeuchtigkeit
    00:00 +3°C° 1.8 mm 1 m/S 592 mmHg 98%
    01:00 +3°C° 1.8 mm 1 m/S 592 mmHg 98%
    02:00 +3°C° 1 mm 1 m/S 592 mmHg 98%
    03:00 +3°C° 1 mm 1 m/S 592 mmHg 98%
    04:00 +3°C° 1 mm 1 m/S 592 mmHg 98%
    05:00 +3°C° 1.7 mm 1 m/S 592 mmHg 99%
    06:00 +2°C° 1.7 mm 2 m/S 592 mmHg 99%
    07:00 +2°C° 1.7 mm 2 m/S 592 mmHg 99%
    08:00 +1°C° 2.2 mm 2 m/S 592 mmHg 98%
    09:00 +2°C° 2.2 mm 1 m/S 592 mmHg 98%
    10:00 +2°C° 2.2 mm 1 m/S 592 mmHg 98%
    11:00 +2°C° 0.5 mm 1 m/S 592 mmHg 98%
    12:00 +2°C° 0.5 mm 1 m/S 592 mmHg 98%
    13:00 +3°C° 0.5 mm 1 m/S 593 mmHg 97%
    14:00 +3°C° 0.3 mm 1 m/S 593 mmHg 98%
    15:00 +3°C° 0.3 mm 1 m/S 593 mmHg 98%
    16:00 +3°C° 0.3 mm 1 m/S 593 mmHg 98%
    17:00 +3°C° 1.9 mm 1 m/S 593 mmHg 98%
    18:00 +3°C° 1.9 mm 1 m/S 592 mmHg 98%
    19:00 +1°C° 1.9 mm 2 m/S 592 mmHg 98%
    20:00 +1°C° 1.3 mm 2 m/S 593 mmHg 98%
    21:00 +1°C° 1.3 mm 2 m/S 593 mmHg 97%
    22:00 -1°C° 1.3 mm 2 m/S 593 mmHg 97%
    23:00 -1°C° 0.6 mm 2 m/S 593 mmHg 97%

    9 Juni, Dienstag

    Zeit Temperatur Niederschläge Wind Luftdruck Luftfeuchtigkeit
    00:00 -1°C° 0.6 mm 2 m/S 593 mmHg 96%
    01:00 +1°C° 0.6 mm 1 m/S 593 mmHg 96%
    02:00 +1°C° 1.4 mm 1 m/S 593 mmHg 97%
    03:00 +1°C° 1.4 mm 1 m/S 593 mmHg 97%
    04:00 +1°C° 1.4 mm 1 m/S 593 mmHg 98%
    05:00 +1°C° 2.3 mm 1 m/S 593 mmHg 98%
    06:00 +1°C° 2.3 mm 1 m/S 593 mmHg 98%
    07:00 +1°C° 2.3 mm 1 m/S 594 mmHg 99%
    08:00 +1°C° 0.8 mm 1 m/S 594 mmHg 98%
    09:00 +2°C° 0.8 mm 1 m/S 594 mmHg 98%
    10:00 +2°C° 0.8 mm 1 m/S 595 mmHg 98%
    11:00 +3°C° 0.3 mm 1 m/S 595 mmHg 97%
    12:00 +3°C° 0.3 mm 1 m/S 595 mmHg 96%
    13:00 +4°C° 0.3 mm 1 m/S 595 mmHg 94%
    14:00 +4°C° 0.1 mm 1 m/S 595 mmHg 93%
    15:00 +5°C° 0.1 mm 1 m/S 595 mmHg 92%
    16:00 +4°C° 0.1 mm 2 m/S 595 mmHg 90%
    17:00 +5°C° 0.1 mm 1 m/S 595 mmHg 92%
    18:00 +4°C° 0.1 mm 1 m/S 595 mmHg 93%
    19:00 +4°C° 0.1 mm 1 m/S 595 mmHg 95%
    20:00 +3°C° 0 mm 1 m/S 595 mmHg 95%
    21:00 +2°C° 0 mm 1 m/S 595 mmHg 95%
    22:00 +1°C° 0 mm 1 m/S 595 mmHg 96%
    23:00 +1°C° 0 mm 1 m/S 595 mmHg 95%
    Mehr zeigen